Regional Weather Roundup
Issued by NWS

Home | Current Version | Previous Version | Text Only | Print | Product List | Glossary On
Versions: 1 2 3 4 5 6 7 8 9 10 11 12 13 14 15 16 17 18 19 20 21 22 23 24 25 26 27 28 29 30 31 32 33 34 35 36 37 38 39 40 41 42 43 44 45 46 47 48 49 50
000
ASUS43 KTOP 281008
RWRKS

WEATHER ROUNDUP FOR KANSAS
NATIONAL WEATHER SERVICE GOODLAND KS
500 AM CDT THU MAY 28 2015

NOTE:  "FAIR" INDICATES FEW OR NO CLOUDS BELOW 12,000 FEET WITH NO
SIGNIFICANT WEATHER AND/OR OBSTRUCTIONS TO VISIBILITY.

KSZ001>006-013>018-027>032-041>047-281100-
NORTHWEST KANSAS

CITY           SKY/WX    TMP DP  RH WIND       PRES   REMARKS
GOODLAND       CLOUDY    55  54  96 S12       30.02S
HAYS           CLOUDY    57  50  77 SE6       30.02R
HILL CITY      CLOUDY    59  54  83 CALM      30.02R
RUSSELL        CLOUDY    58  56  93 SE6       30.01R
$$

KSZ061>065-074>080-084>089-281100-
SOUTHWEST KANSAS

CITY           SKY/WX    TMP DP  RH WIND       PRES   REMARKS
DODGE CITY     LGT RAIN  61  54  77 S20       30.03F
ELKHART          N/A     59  53  80 SE14        N/A
GARDEN CITY    CLOUDY    57  54  89 S8        30.01R
GREAT BEND     CLOUDY    57  54  88 SE3       30.02R
LIBERAL        CLOUDY    61  54  77 E12       30.06S
PRATT          CLOUDY    61  59  94 SW9       30.03S
$$

KSZ066>073-081>083-090>101-281100-
SOUTHEAST KANSAS

CITY           SKY/WX    TMP DP  RH WIND       PRES   REMARKS
CHANUTE        LGT RAIN  68  61  78 W13       30.08R
COFFEYVILLE    LGT RAIN  68  65  90 CALM      30.07R
HUTCHINSON     CLOUDY    62  59  90 E3        30.01S
MEDICINE LODGE   N/A     63  62  97 S3        30.03R
NEWTON         CLOUDY    64  59  82 SE6       30.06R
PARSONS        LGT RAIN  68  65  90 SW5       30.08R
WICHITA INTL   CLOUDY    64  61  90 SE9       30.01S
WICHITA JABRA  CLOUDY    63  61  93 S10       30.01S
WICHITA MCCONL CLOUDY    63  61  93 SE9       30.02S
WINFIELD       CLOUDY    65  64  97 CALM      30.02S
$$

KSZ007>012-019>026-033>040-048>060-102>105-281100-
NORTHEAST KANSAS

CITY           SKY/WX    TMP DP  RH WIND       PRES   REMARKS
CONCORDIA      LGT RAIN  62  61  96 E5        30.02R
EMPORIA        LGT RAIN  64  62  93 S8        30.07R
LAWRENCE       CLOUDY    66  57  72 SE8       30.05S
MANHATTAN      TSTM      64  64 100 SE6       30.04R
MARYSVILLE     HVY RAIN  63  61  94 CALM      30.05R
OLATHE IND     CLOUDY    68  56  65 SE8       30.07S
OLATHE EXE     CLOUDY    67  57  70 SE7       30.06S
SALINA         LGT RAIN  64  61  90 SE7       30.03R
TOPEKA BILLARD CLOUDY    66  58  75 E6        30.04S
TOPEKA FORBES  CLOUDY    69  56  62 SE9       30.05R
$$


USA.gov is the U.S. government's official web portal to all federal, state and local government web resources and services.